Location: Chilton Park
(37.7711°N, 100.0276°W)
Time: 04:53:15
(UTC+00:00)

Cosmos 1500 Rocket - Pass Details

Date: 05 July 2022
Orbit: 602 x 631 km, 82.5° (Epoch: 07 August)

Event Time Altitude Azimuth Distance (km) Brightness Sun altitude
Exits shadow 10:04:49 21° 229° (SW) 1,419 4.8 -13.4°
Maximum altitude 10:07:11 36° 282° (WNW) 1,008 4.4 -13.0°
Drops below altitude 10° 10:11:18 10° 349° (N) 2,017 6.6 -12.4°
Sets 10:13:43 0° 358° (N) 2,930 7.6 -12.1°
